Location: Lake Sonoma
(38.7200°N, 123.0564°W)
Time: 22:07:37
(UTC-07:00)

Amateur Radio Satellites - All Passes

Search period start: 24 June 2016 21:37
Search period end: 25 June 2016 21:37
Location: Lake Sonoma, 38.7200°N, 123.0564°W

Satellite Date Start Highest point End Downlink Frequencies (MHz)
Time Altitude Azimuth
PRISM 24 Jun 21:38:02 21:42:06 64° 102° (ESE) 21:46:07 437.425
HO-68 24 Jun 21:40:08 21:46:07 29° 265° (W) 21:52:10 435.675
AO-85 24 Jun 21:41:38 21:44:51 16° 108° (ESE) 21:48:02 145.980
UWE-3 24 Jun 21:46:19 21:50:24 58° 260° (W) 21:54:35 435.000/436.395/437.385
HUMSAT D 24 Jun 21:50:52 21:54:01 21° 68° (ENE) 21:57:12 437.325/437.525
Oscar 11 24 Jun 21:53:13 21:57:31 70° 258° (WSW) 22:01:52 145.826/435.025
FUNcube-1 24 Jun 21:54:58 21:59:08 78° 259° (W) 22:03:23 145.935
RS-15 24 Jun 22:15:33 22:28:00 85° 60° (ENE) 22:40:15 29.354- 29.394
AAUSAT CUBESAT 2 24 Jun 22:21:28 22:23:30 13° 269° (W) 22:25:33 437.432
Cosmos 2499 24 Jun 22:22:11 22:26:08 14° 301° (WNW) 22:30:13 435.465 / 435.565
CUBEBUG 2 24 Jun 22:28:39 22:30:43 13° 269° (W) 22:32:48 437.445
TIGRISAT 24 Jun 22:41:59 22:45:27 20° 94° (E) 22:48:55 435.000
UNISAT 6 24 Jun 22:45:25 22:49:10 24° 95° (E) 22:52:55 437.425
DX 1 24 Jun 23:06:49 23:09:04 14° 64° (ENE) 23:11:19 434.975-435.025
DELFI C3 24 Jun 23:07:24 23:10:26 20° 266° (W) 23:13:30 145.870
PRISM 24 Jun 23:16:20 23:16:50 10° 297° (WNW) 23:17:21 437.425
50 SAT 24 Jun 23:19:15 23:22:09 22° 70° (ENE) 23:25:05 437.505
AO-85 24 Jun 23:19:25 23:24:50 70° 302° (WNW) 23:30:07 145.980
ANTELSAT 24 Jun 23:24:44 23:29:21 63° 101° (E) 23:34:00 437.575/2403.000
VELOX 1 24 Jun 23:25:51 23:29:37 28° 69° (ENE) 23:33:22 145.980
HUMSAT D 24 Jun 23:25:51 23:29:27 29° 264° (W) 23:33:07 437.325/437.525
CUBEBUG 1 24 Jun 23:28:51 23:32:44 32° 70° (ENE) 23:36:37 437.445
YUBILEINY 24 Jun 23:39:26 23:46:33 26° 68° (ENE) 23:53:37 435.215
ESTCUBE 1 24 Jun 23:43:48 23:48:19 73° 75° (ENE) 23:52:51 437.505/2401.250
NANOSAT C BR1 24 Jun 23:53:08 23:56:08 19° 94° (E) 23:59:07 145.865
QB50P1 24 Jun 23:53:31 23:56:40 20° 94° (E) 23:59:48 145.935-145.965
POPSAT HIP 1 24 Jun 23:56:14 23:59:29 21° 95° (E) 00:02:43 437.405
AISAT 25 Jun 00:05:24 00:09:49 83° 75° (ENE) 00:14:14 437.250
QB50P2 25 Jun 00:07:02 00:10:49 30° 97° (E) 00:14:34 145.880/145.840
POLYITAN 1 25 Jun 00:09:38 00:13:26 31° 97° (E) 00:17:14 437.675
DUCHIFAT 1 25 Jun 00:15:09 00:18:56 31° 97° (E) 00:22:42 145.980
TIGRISAT 25 Jun 00:17:58 00:22:12 37° 289° (WNW) 00:26:29 435.000
UNISAT 6 25 Jun 00:21:46 00:25:52 32° 290° (WNW) 00:30:00 437.425
UKube-1 25 Jun 00:28:26 00:32:45 90° 254° (WSW) 00:37:06 .
RS-15 25 Jun 00:29:53 00:38:59 25° 260° (W) 00:48:00 29.354- 29.394
SPROUT 25 Jun 00:38:09 00:42:22 75° 77° (ENE) 00:46:38 437.525
TISAT 1 25 Jun 00:39:38 00:42:35 19° 67° (ENE) 00:45:31 437.305
DX 1 25 Jun 00:40:34 00:44:48 51° 260° (W) 00:49:03 434.975-435.025
SO-50 25 Jun 00:43:54 00:45:55 12° 39° (NE) 00:47:54 436.795
Cosmos 2491 25 Jun 00:45:42 00:53:25 36° 86° (E) 01:01:06 435.465 / 435.565
50 SAT 25 Jun 00:52:51 00:55:45 21° 265° (W) 00:58:39 437.505
JAS-2 25 Jun 00:57:23 01:01:42 22° 92° (E) 01:05:44 435.910
VELOX 1 25 Jun 01:02:26 01:06:01 24° 264° (W) 01:09:39 145.980
ANTELSAT 25 Jun 01:03:22 01:05:31 13° 296° (WNW) 01:07:41 437.575/2403.000
AO-85 25 Jun 01:03:49 01:06:13 13° 321° (NW) 01:08:35 145.980
CUBEBUG 1 25 Jun 01:05:46 01:09:03 21° 265° (W) 01:12:20 437.445
NANOSAT C BR1 25 Jun 01:28:06 01:31:55 33° 289° (WNW) 01:35:44 145.865
BUGSAT 1 25 Jun 01:28:13 01:32:18 80° 284° (WNW) 01:36:25 437.445
Cosmos 2504 25 Jun 01:28:23 01:36:41 41° 74° (ENE) 01:44:40 435.465 / 435.565
QB50P1 25 Jun 01:28:42 01:32:28 31° 289° (WNW) 01:36:14 145.935-145.965
POPSAT HIP 1 25 Jun 01:31:33 01:35:15 30° 290° (WNW) 01:38:58 437.405
YUBILEINY 25 Jun 01:35:16 01:43:58 66° 268° (W) 01:52:41 435.215
QB50P2 25 Jun 01:43:11 01:46:26 21° 292° (WNW) 01:49:40 145.880/145.840
POLYITAN 1 25 Jun 01:45:50 01:49:02 21° 292° (WNW) 01:52:15 437.675
DUCHIFAT 1 25 Jun 01:51:17 01:54:25 21° 292° (WNW) 01:57:33 145.980
PCSat 25 Jun 02:12:22 02:15:28 16° 104° (ESE) 02:18:33 145.827
TISAT 1 25 Jun 02:14:14 02:17:59 32° 262° (W) 02:21:46 437.305
SWISSCUBE 25 Jun 02:19:22 02:24:00 51° 72° (ENE) 02:28:40 437.505
Gurwin Techsat 1B 25 Jun 02:20:18 02:24:15 21° 94° (E) 02:28:11 435.225
SO-50 25 Jun 02:22:29 02:27:10 84° 59° (ENE) 02:31:40 436.795
Oscar 19 25 Jun 02:35:11 02:40:18 69° 102° (ESE) 02:45:23 437.125/150
Cosmos 2491 25 Jun 02:41:37 02:49:58 47° 284° (WNW) 02:58:21 435.465 / 435.565
JAS-2 25 Jun 02:41:39 02:47:05 43° 291° (WNW) 02:52:04 435.910
ITUPSAT 1 25 Jun 02:43:16 02:48:04 81° 75° (ENE) 02:52:54 437.325
BEESAT 25 Jun 02:44:59 02:49:46 86° 76° (ENE) 02:54:35 436.000
ITAMSAT 1 25 Jun 02:50:50 02:53:19 13° 91° (E) 02:55:48 435.822/435.867
O/OREOS (USA 219) 25 Jun 02:54:14 02:56:50 15° 99° (E) 02:59:27 437.305
KKS-1 25 Jun 03:04:26 03:07:01 16° 65° (ENE) 03:09:37 437.445
Cosmos 2504 25 Jun 03:21:49 03:30:02 44° 273° (W) 03:37:59 435.465 / 435.565
BEESAT 3 25 Jun 03:22:26 03:25:47 28° 113° (ESE) 03:29:09 437.485
STARS 25 Jun 03:46:44 03:50:03 22° 67° (ENE) 03:53:24 437.465
AO-7 25 Jun 03:50:07 03:56:47 26° 95° (E) 04:03:22 29.400- 29.500
BEESAT 2 25 Jun 03:52:03 03:55:35 32° 114° (ESE) 03:59:10 435.950
PCSat 25 Jun 03:52:52 03:58:14 66° 300° (WNW) 04:03:40 145.827
SWISSCUBE 25 Jun 03:59:16 04:02:04 15° 268° (W) 04:04:54 437.505
Gurwin Techsat 1B 25 Jun 03:59:19 04:04:23 46° 289° (WNW) 04:09:26 435.225
MOZHAYETS 4 25 Jun 03:59:58 04:04:26 53° 73° (ENE) 04:08:57
Oscar 19 25 Jun 04:16:22 04:19:01 14° 298° (WNW) 04:21:40 437.125/150
ITAMSAT 1 25 Jun 04:28:02 04:33:15 68° 286° (WNW) 04:38:25 435.822/435.867
O/OREOS (USA 219) 25 Jun 04:31:29 04:35:49 45° 295° (WNW) 04:40:08 437.305
KKS-1 25 Jun 04:38:56 04:43:11 47° 260° (W) 04:47:28 437.445
AIST 1 25 Jun 04:42:31 04:46:20 31° 77° (ENE) 04:50:08
BEESAT 3 25 Jun 05:00:13 05:03:26 24° 310° (NW) 05:06:41 437.485
CUBESAT XI-V 25 Jun 05:16:55 05:21:17 40° 72° (ENE) 05:25:41 437.345
STARS 25 Jun 05:22:21 05:26:13 31° 263° (W) 05:30:07 437.465
BEESAT 2 25 Jun 05:30:23 05:33:29 21° 311° (NW) 05:36:36 435.950
GONETS M04 25 Jun 05:35:55 05:43:37 34° 72° (ENE) 05:51:18
AIST 2 25 Jun 05:39:08 05:42:30 25° 112° (ESE) 05:45:53 435.215
MOZHAYETS 4 25 Jun 05:39:30 05:41:54 14° 269° (W) 05:44:20
PCSat 25 Jun 05:41:00 05:42:42 11° 320° (NW) 05:44:24 145.827
AO-7 25 Jun 05:41:45 05:50:03 67° 292° (WNW) 05:58:18 29.400- 29.500
HORYU 2 25 Jun 05:56:30 06:00:58 61° 101° (E) 06:05:24 437.375
Cubesat XI-IV 25 Jun 06:07:50 06:08:46 10° 89° (E) 06:09:40 437.490
AO-85 25 Jun 06:15:45 06:16:21 10° 36° (NE) 06:16:56 145.980
Cosmos 2499 25 Jun 06:16:28 06:24:41 41° 74° (ENE) 06:32:27 435.465 / 435.565
AIST 1 25 Jun 06:20:46 06:23:39 18° 273° (W) 06:26:32
BRITE-PL 25 Jun 06:20:54 06:23:32 16° 93° (E) 06:26:09 437.365/2234.400
CUTE-I 25 Jun 06:40:31 06:44:51 24° 95° (E) 06:49:08 437.470
STRAND 1 25 Jun 06:41:32 06:45:35 24° 66° (ENE) 06:49:40 437.568
CUBESAT XI-V 25 Jun 06:55:26 06:58:47 19° 267° (W) 07:02:10 437.345
NOAA 18 25 Jun 07:07:12 07:12:33 47° 100° (E) 07:17:52 137.9125
GOMX 1 25 Jun 07:13:29 07:17:06 28° 97° (E) 07:20:49 467.674
AIST 2 25 Jun 07:17:16 07:20:52 28° 309° (NW) 07:24:29 435.215
NOAA 15 25 Jun 07:20:51 07:26:08 82° 102° (ESE) 07:31:22 137.62
GONETS M04 25 Jun 07:32:22 07:40:39 51° 271° (W) 07:48:58
LilacSat-2 25 Jun 07:33:57 07:37:50 88° 288° (WNW) 07:41:44 437.200
HORYU 2 25 Jun 07:34:59 07:36:58 13° 297° (WNW) 07:38:59 437.375
AO-7 25 Jun 07:37:12 07:41:14 15° 312° (NW) 07:45:17 29.400- 29.500
DANDE 25 Jun 07:42:11 07:48:03 22° 83° (E) 07:53:49 436.750
PHONESAT 2.4 25 Jun 07:43:14 07:44:42 13° 146° (SE) 07:46:11 2401.200-2431.200
Cubesat XI-IV 25 Jun 07:44:02 07:49:27 86° 285° (WNW) 07:54:50 437.490
AO-85 25 Jun 07:53:17 07:57:48 71° 58° (ENE) 08:01:54 145.980
CUSAT 1 25 Jun 07:53:26 08:01:00 48° 93° (E) 08:07:46 437.405
BRITE-PL 25 Jun 07:58:24 08:02:11 34° 288° (WNW) 08:05:56 437.365/2234.400
Cosmos 2499 25 Jun 08:09:39 08:17:46 43° 273° (W) 08:25:28 435.465 / 435.565
CINEMA 3 25 Jun 08:19:19 08:22:45 21° 95° (E) 08:26:16 145.822/145.860
STRAND 1 25 Jun 08:19:45 08:24:31 39° 262° (W) 08:29:20 437.568
CUTE-I 25 Jun 08:19:59 08:24:59 40° 290° (WNW) 08:29:58 437.470
PRISM 25 Jun 08:26:00 08:29:51 37° 72° (ENE) 08:33:42 437.425
DOVE 4 25 Jun 08:32:30 08:36:47 80° 283° (WNW) 08:41:15 437.250
CANX-2 25 Jun 08:41:07 08:45:03 34° 97° (E) 08:48:56 2200.000
CUBEBUG 2 25 Jun 08:43:49 08:45:17 11° 91° (E) 08:46:45 437.445
NOAA 18 25 Jun 08:48:36 08:52:51 23° 296° (WNW) 08:57:07 137.9125
GOMX 1 25 Jun 08:51:54 08:55:04 21° 291° (WNW) 08:58:18 467.674
COMPASS 1 25 Jun 08:58:07 09:01:27 23° 95° (E) 09:04:46 437.405
CUTE 1.7 + AOD 2 25 Jun 09:01:40 09:05:53 52° 99° (E) 09:10:02 437.475
NOAA 15 25 Jun 09:03:01 09:05:11 13° 300° (WNW) 09:07:20 137.62
HO-68 25 Jun 09:07:39 09:14:47 61° 102° (ESE) 09:21:52 435.675
SEEDS 25 Jun 09:12:38 09:16:46 49° 99° (E) 09:20:51 437.485
M-CUBED/EXP-1 PRIME 25 Jun 09:16:48 09:19:06 15° 100° (E) 09:21:29 437.505
PHONESAT 2.4 25 Jun 09:17:54 09:20:55 60° 161° (SSE) 09:23:58 2401.200-2431.200
DANDE 25 Jun 09:21:43 09:30:05 81° 279° (W) 09:38:16 436.750
ZACube-1 25 Jun 09:25:45 09:28:20 15° 92° (E) 09:30:56 437.345
Cubesat XI-IV 25 Jun 09:27:10 09:28:40 11° 301° (WNW) 09:30:11 437.490
CUSAT 1 25 Jun 09:36:04 09:43:08 35° 286° (WNW) 09:49:28 437.405
UWE-3 25 Jun 09:37:01 09:41:03 30° 96° (E) 09:45:09 435.000/436.395/437.385
TIGRISAT 25 Jun 09:40:35 09:42:57 15° 65° (ENE) 09:45:20 435.000
ISS 25 Jun 09:41:46 09:44:32 26° 133° (SE) 09:47:18 145.825
Oscar 11 25 Jun 09:42:19 09:45:49 23° 95° (E) 09:49:16 145.826/435.025
UNISAT 6 25 Jun 09:43:57 09:46:44 17° 66° (ENE) 09:49:33 437.425
FUNcube-1 25 Jun 09:44:37 09:48:11 23° 94° (E) 09:51:46 145.935
CINEMA 3 25 Jun 09:55:51 09:59:55 35° 288° (WNW) 10:04:07 145.822/145.860
AAUSAT CUBESAT 2 25 Jun 10:02:31 10:06:43 77° 284° (WNW) 10:10:51 437.432
PRISM 25 Jun 10:02:39 10:05:17 16° 266° (W) 10:07:54 437.425
AUBIESAT-1 25 Jun 10:13:51 10:17:39 60° 106° (ESE) 10:21:46 437.475
CANX-2 25 Jun 10:17:35 10:20:39 19° 292° (WNW) 10:23:41 2200.000
CUBEBUG 2 25 Jun 10:17:43 10:22:15 65° 284° (WNW) 10:26:53 437.445
ANTELSAT 25 Jun 10:22:23 10:26:26 44° 73° (ENE) 10:30:36 437.575/2403.000
COMPASS 1 25 Jun 10:33:26 10:36:59 27° 290° (WNW) 10:40:29 437.405
RS-15 25 Jun 10:34:48 10:37:39 11° 93° (E) 10:40:32 29.354- 29.394
CUTE 1.7 + AOD 2 25 Jun 10:39:11 10:41:14 13° 295° (WNW) 10:43:18 437.475
DELFI C3 25 Jun 10:45:13 10:49:09 53° 100° (E) 10:53:02 145.870
NANOSAT C BR1 25 Jun 10:45:28 10:47:10 12° 64° (ENE) 10:48:53 145.865
QB50P1 25 Jun 10:45:58 10:47:58 13° 65° (ENE) 10:49:58 145.935-145.965
POPSAT HIP 1 25 Jun 10:48:38 10:50:48 14° 65° (ENE) 10:52:58 437.405
SEEDS 25 Jun 10:49:53 10:52:02 14° 295° (WNW) 10:54:10 437.485
M-CUBED/EXP-1 PRIME 25 Jun 10:50:09 10:53:42 38° 292° (WNW) 10:57:29 437.505
PHONESAT 2.4 25 Jun 10:54:33 10:57:35 60° 357° (N) 11:00:39 2401.200-2431.200
HO-68 25 Jun 10:56:17 11:01:58 26° 300° (WNW) 11:07:39 435.675
Cosmos 2491 25 Jun 10:58:39 11:03:31 16° 62° (ENE) 11:08:21 435.465 / 435.565
QB50P2 25 Jun 10:59:00 11:02:02 20° 67° (ENE) 11:05:05 145.880/145.840
ZACube-1 25 Jun 11:00:29 11:04:51 49° 286° (WNW) 11:09:15 437.345
PCSat 25 Jun 11:00:50 11:03:06 12° 41° (NE) 11:05:22 145.827
POLYITAN 1 25 Jun 11:01:35 11:04:39 20° 68° (ENE) 11:07:43 437.675
DUCHIFAT 1 25 Jun 11:06:22 11:09:24 20° 68° (ENE) 11:12:26 145.980
DANDE 25 Jun 11:08:40 11:13:56 18° 296° (WNW) 11:19:05 436.750
JAS-2 25 Jun 11:09:39 11:12:54 13° 57° (ENE) 11:16:02 435.910
HUMSAT D 25 Jun 11:09:51 11:14:02 47° 99° (E) 11:18:11 437.325/437.525
UWE-3 25 Jun 11:13:41 11:17:22 25° 291° (WNW) 11:21:06 435.000/436.395/437.385
TIGRISAT 25 Jun 11:15:07 11:19:13 46° 261° (W) 11:23:24 435.000
ISS 25 Jun 11:17:56 11:20:53 31° 329° (NNW) 11:23:52 145.825
Oscar 11 25 Jun 11:18:09 11:21:54 29° 290° (WNW) 11:25:38 145.826/435.025
UNISAT 6 25 Jun 11:19:07 11:23:07 39° 262° (W) 11:27:12 437.425
FUNcube-1 25 Jun 11:20:25 11:24:25 32° 289° (WNW) 11:28:28 145.935
ESTCUBE 1 25 Jun 11:38:52 11:41:45 17° 93° (E) 11:44:36 437.505/2401.250
BEESAT 3 25 Jun 11:41:34 11:43:36 14° 45° (NE) 11:45:37 437.485
AUBIESAT-1 25 Jun 11:50:42 11:51:45 11° 299° (WNW) 11:52:51 437.475
AISAT 25 Jun 11:58:01 12:00:52 17° 93° (E) 12:03:43 437.250
ANTELSAT 25 Jun 12:01:04 12:03:24 14° 268° (W) 12:05:45 437.575/2403.000
BEESAT 2 25 Jun 12:11:50 12:14:18 16° 46° (NE) 12:16:45 435.950
Oscar 19 25 Jun 12:16:23 12:17:14 10° 59° (ENE) 12:18:05 437.125/150
BUGSAT 1 25 Jun 12:16:27 12:20:23 55° 74° (ENE) 12:24:20 437.445
UKube-1 25 Jun 12:18:04 12:20:46 16° 93° (E) 12:23:27 .
NANOSAT C BR1 25 Jun 12:18:20 12:22:25 54° 260° (W) 12:26:32 145.865
QB50P1 25 Jun 12:19:14 12:23:18 50° 260° (W) 12:27:24 145.935-145.965
POPSAT HIP 1 25 Jun 12:22:08 12:26:10 47° 261° (W) 12:30:13 437.405
DELFI C3 25 Jun 12:22:14 12:23:31 11° 295° (WNW) 12:24:47 145.870
50 SAT 25 Jun 12:22:29 12:25:50 31° 97° (E) 12:29:08 437.505
SPROUT 25 Jun 12:26:55 12:29:12 14° 92° (E) 12:31:28 437.525
DX 1 25 Jun 12:30:15 12:34:00 28° 97° (E) 12:37:44 434.975-435.025
PHONESAT 2.4 25 Jun 12:31:14 12:34:20 87° 8° (N) 12:37:25 2401.200-2431.200
QB50P2 25 Jun 12:33:51 12:37:37 32° 263° (W) 12:41:24 145.880/145.840
RS-15 25 Jun 12:36:19 12:47:24 65° 113° (ESE) 12:59:08 29.354- 29.394
POLYITAN 1 25 Jun 12:36:31 12:40:15 31° 263° (W) 12:44:00 437.675
YUBILEINY 25 Jun 12:39:13 12:46:27 31° 84° (E) 12:53:43 435.215
DUCHIFAT 1 25 Jun 12:41:10 12:44:52 31° 263° (W) 12:48:36 145.980
PCSat 25 Jun 12:42:00 12:47:27 74° 61° (ENE) 12:52:51 145.827
HUMSAT D 25 Jun 12:46:48 12:49:14 15° 294° (WNW) 12:51:40 437.325/437.525
JAS-2 25 Jun 12:49:06 12:56:50 70° 73° (ENE) 13:03:59 435.910
VELOX 1 25 Jun 12:52:45 12:57:08 68° 102° (ESE) 13:01:30 145.980
Cosmos 2491 25 Jun 12:53:00 13:01:46 83° 83° (E) 13:10:30 435.465 / 435.565
CUBEBUG 1 25 Jun 12:54:15 12:58:35 79° 104° (ESE) 13:02:53 437.445
ISS 25 Jun 12:57:29 12:58:09 10° 348° (NNW) 12:58:50 145.825
O/OREOS (USA 219) 25 Jun 13:03:51 13:07:32 25° 60° (ENE) 13:11:13 437.305
ESTCUBE 1 25 Jun 13:14:29 13:18:44 42° 288° (WNW) 13:22:57 437.505/2401.250
BEESAT 3 25 Jun 13:17:45 13:21:39 61° 243° (WSW) 13:25:31 437.485
AISAT 25 Jun 13:33:24 13:37:30 39° 288° (WNW) 13:41:34 437.250
Gurwin Techsat 1B 25 Jun 13:39:55 13:44:28 30° 67° (ENE) 13:49:02 435.225
BEESAT 2 25 Jun 13:48:33 13:52:25 51° 243° (WSW) 13:56:16 435.950
Oscar 19 25 Jun 13:50:34 13:55:44 86° 76° (ENE) 14:00:54 437.125/150
UKube-1 25 Jun 13:52:56 13:56:58 40° 289° (WNW) 14:00:59 .
50 SAT 25 Jun 13:57:01 13:59:14 15° 293° (WNW) 14:01:26 437.505
TISAT 1 25 Jun 13:59:00 14:02:56 38° 99° (E) 14:06:51 437.305
SPROUT 25 Jun 14:01:17 14:05:22 45° 287° (WNW) 14:09:26 437.525
AIST 2 25 Jun 14:02:06 14:04:20 14° 44° (NE) 14:06:32 435.215
Cosmos 2504 25 Jun 14:05:16 14:12:07 33° 84° (E) 14:19:24 435.465 / 435.565
DX 1 25 Jun 14:06:36 14:10:03 24° 292° (WNW) 14:13:29 434.975-435.025
ITAMSAT 1 25 Jun 14:07:07 14:10:45 20° 64° (ENE) 14:14:25 435.822/435.867
PHONESAT 2.4 25 Jun 14:08:12 14:10:44 23° 209° (SSW) 14:13:18 2401.200-2431.200
SWISSCUBE 25 Jun 14:22:23 14:25:01 15° 92° (E) 14:27:37 437.505
PCSat 25 Jun 14:27:35 14:30:08 13° 257° (WSW) 14:32:42 145.827
VELOX 1 25 Jun 14:31:46 14:33:00 11° 297° (WNW) 14:34:14 145.980
YUBILEINY 25 Jun 14:34:17 14:42:43 54° 282° (WNW) 14:51:16 435.215
JAS-2 25 Jun 14:36:23 14:42:10 23° 268° (W) 14:47:43 435.910
O/OREOS (USA 219) 25 Jun 14:43:02 14:46:54 29° 256° (WSW) 14:50:46 437.305
ITUPSAT 1 25 Jun 14:45:49 14:49:37 23° 95° (E) 14:53:23 437.325
BEESAT 25 Jun 14:47:04 14:50:56 24° 95° (E) 14:54:47 436.000
AO-7 25 Jun 14:47:43 14:54:53 33° 59° (ENE) 15:02:03 29.400- 29.500
RS-15 25 Jun 14:49:52 15:00:32 41° 318° (NW) 15:11:48 29.354- 29.394
Cosmos 2491 25 Jun 14:52:01 14:57:26 18° 281° (WNW) 15:02:51 435.465 / 435.565
Gurwin Techsat 1B 25 Jun 15:19:34 15:24:18 33° 263° (W) 15:29:04 435.225
TISAT 1 25 Jun 15:35:34 15:38:15 17° 294° (WNW) 15:40:57 437.305
AIST 2 25 Jun 15:39:06 15:43:14 66° 241° (WSW) 15:47:20 435.215
ITAMSAT 1 25 Jun 15:44:46 15:49:48 50° 260° (W) 15:54:54 435.822/435.867
Cosmos 2504 25 Jun 15:57:25 16:05:05 49° 284° (WNW) 16:13:21 435.465 / 435.565
MOZHAYETS 4 25 Jun 15:57:55 16:00:18 14° 91° (E) 16:02:41
SWISSCUBE 25 Jun 15:58:25 16:03:07 54° 287° (WNW) 16:07:46 437.505
ISS 25 Jun 16:10:23 16:13:13 26° 29° (NNE) 16:16:00 145.825
ITUPSAT 1 25 Jun 16:23:08 16:27:29 35° 290° (WNW) 16:31:49 437.325
BEESAT 25 Jun 16:24:27 16:28:44 33° 291° (WNW) 16:32:59 436.000
KKS-1 25 Jun 16:31:07 16:35:10 34° 98° (E) 16:39:12 437.445
SO-50 25 Jun 16:35:04 16:39:35 38° 114° (ESE) 16:44:07 436.795
AO-7 25 Jun 16:39:07 16:47:13 56° 257° (WSW) 16:55:25 29.400- 29.500
HORYU 2 25 Jun 16:53:06 16:57:18 47° 73° (ENE) 17:01:35 437.375
NOAA 18 25 Jun 16:57:10 16:57:55 10° 57° (ENE) 16:58:40 137.9125
NOAA 15 25 Jun 17:02:57 17:05:42 14° 61° (ENE) 17:08:27 137.62
RS-15 25 Jun 17:09:48 17:17:47 19° 351° (N) 17:25:58 29.354- 29.394
AIST 1 25 Jun 17:10:58 17:14:11 21° 88° (E) 17:17:25
STARS 25 Jun 17:12:23 17:16:39 49° 100° (E) 17:20:55 437.465
CUBESAT XI-V 25 Jun 17:17:40 17:18:29 10° 89° (E) 17:19:17 437.345
Cubesat XI-IV 25 Jun 17:27:08 17:30:32 17° 62° (ENE) 17:33:57 437.490
BRITE-PL 25 Jun 17:29:49 17:33:40 22° 69° (ENE) 17:37:21 437.365/2234.400
MOZHAYETS 4 25 Jun 17:33:14 17:37:46 53° 286° (WNW) 17:42:16
ISS 25 Jun 17:46:40 17:49:41 35° 225° (SW) 17:52:42 145.825
CUTE-I 25 Jun 18:00:53 18:05:41 35° 68° (ENE) 18:10:31 437.470
KKS-1 25 Jun 18:08:12 18:11:30 21° 293° (WNW) 18:14:48 437.445
JUGNU 25 Jun 18:11:23 18:13:12 11° 176° (S) 18:15:01 437.505
LilacSat-2 25 Jun 18:14:42 18:18:08 34° 73° (ENE) 18:21:36 437.200
SO-50 25 Jun 18:16:00 18:20:09 27° 311° (NW) 18:24:19 436.795
GOMX 1 25 Jun 18:20:18 18:24:22 29° 71° (ENE) 18:28:13 467.674
HORYU 2 25 Jun 18:31:40 18:34:07 15° 268° (W) 18:36:34 437.375
NOAA 18 25 Jun 18:32:11 18:37:38 78° 74° (ENE) 18:43:08 137.9125
CUSAT 1 25 Jun 18:33:50 18:35:47 13° 64° (ENE) 18:37:31 437.405
GONETS M04 25 Jun 18:35:22 18:43:15 40° 87° (E) 18:51:07
NOAA 15 25 Jun 18:39:33 18:44:50 73° 257° (WSW) 18:50:08 137.62
AIST 1 25 Jun 18:47:49 18:51:35 29° 283° (WNW) 18:55:22
STARS 25 Jun 18:50:07 18:52:35 15° 296° (WNW) 18:55:04 437.465
Cosmos 2499 25 Jun 18:51:12 18:58:12 33° 84° (E) 19:05:35 435.465 / 435.565
CUBESAT XI-V 25 Jun 18:51:42 18:56:19 69° 285° (WNW) 19:00:53 437.345
Cubesat XI-IV 25 Jun 19:04:49 19:10:04 60° 259° (W) 19:15:23 437.490
BRITE-PL 25 Jun 19:07:00 19:11:55 41° 261° (W) 19:16:33 437.365/2234.400
CINEMA 3 25 Jun 19:21:04 19:23:26 15° 66° (ENE) 19:25:47 145.822/145.860
RS-15 25 Jun 19:26:46 19:36:31 26° 27° (NNE) 19:46:17 29.354- 29.394
CANX-2 25 Jun 19:33:00 19:36:15 22° 68° (ENE) 19:39:31 2200.000
HO-68 25 Jun 19:34:55 19:41:24 39° 65° (ENE) 19:47:57 435.675
DOVE 4 25 Jun 19:36:40 19:41:07 87° 71° (ENE) 19:45:22 437.250
CUTE-I 25 Jun 19:41:14 19:45:43 28° 264° (W) 19:50:17 437.470
COMPASS 1 25 Jun 19:48:42 19:50:54 14° 65° (ENE) 19:53:07 437.405
LilacSat-2 25 Jun 19:50:33 19:52:34 14° 268° (W) 19:54:36 437.200
CUTE 1.7 + AOD 2 25 Jun 19:53:03 19:56:49 31° 71° (ENE) 20:00:36 437.475
GOMX 1 25 Jun 19:58:30 20:02:25 25° 264° (W) 20:06:08 467.674
JUGNU 25 Jun 20:00:10 20:01:17 10° 187° (S) 20:02:24 437.505
SEEDS 25 Jun 20:03:08 20:06:47 29° 70° (ENE) 20:10:26 437.485
M-CUBED/EXP-1 PRIME 25 Jun 20:03:42 20:05:07 12° 62° (ENE) 20:06:32 437.505
DANDE 25 Jun 20:06:25 20:11:45 72° 79° (ENE) 20:15:39 436.750
CUSAT 1 25 Jun 20:14:56 20:18:04 24° 272° (W) 20:20:39 437.405
NOAA 18 25 Jun 20:16:46 20:18:52 12° 270° (W) 20:20:58 137.9125
STRAND 1 25 Jun 20:31:05 20:36:17 79° 103° (ESE) 20:41:25 437.568
GONETS M04 25 Jun 20:31:50 20:39:57 42° 285° (WNW) 20:48:05
UWE-3 25 Jun 20:33:36 20:36:36 20° 67° (ENE) 20:39:40 435.000/436.395/437.385
Oscar 11 25 Jun 20:36:36 20:39:15 16° 66° (ENE) 20:41:53 145.826/435.025
FUNcube-1 25 Jun 20:40:08 20:42:25 14° 65° (ENE) 20:44:42 145.935
Cosmos 2499 25 Jun 20:42:59 20:50:52 51° 284° (WNW) 20:59:21 435.465 / 435.565
AAUSAT CUBESAT 2 25 Jun 20:51:00 20:55:06 56° 74° (ENE) 20:59:14 437.432
CINEMA 3 25 Jun 20:56:18 21:00:15 41° 262° (W) 21:04:11 145.822/145.860
AUBIESAT-1 25 Jun 20:59:32 21:02:46 55° 70° (ENE) 21:06:01 437.475
SRMSAT 25 Jun 21:07:51 21:09:47 12° 180° (S) 21:11:42 437.500
CANX-2 25 Jun 21:08:09 21:11:55 30° 264° (W) 21:15:43 2200.000
CUBEBUG 2 25 Jun 21:14:29 21:18:36 87° 82° (E) 21:22:51 437.445
COMPASS 1 25 Jun 21:21:59 21:26:02 47° 261° (W) 21:30:08 437.405
HO-68 25 Jun 21:22:32 21:29:04 38° 262° (W) 21:35:40 435.675
CUTE 1.7 + AOD 2 25 Jun 21:29:28 21:32:40 20° 266° (W) 21:35:54 437.475
DELFI C3 25 Jun 21:30:02 21:33:24 26° 70° (ENE) 21:36:46 145.870
